contact:dominique.lefevre@mio.osupytheas.fr, maurice.libes@osupytheas.fr, didier.mallarino@osupytheas.fr
Project:EMSO http://www.emso-fr.org/EMSO-France
Depth: 2436.0 m
Title:EMSO Ligure Ouest : Data MII capteur CSTAR
DateTime,Latitude,Longitude,Instrument_Serial,Reference_Counts,Signal_Counts,Corrected_Signal_raw_counts,Calculated_Beam_c_inverse_meters,Internal_thermistor_counts
DateTime,Latitude,Longitude,Instrument_Serial,Reference_Counts,Signal_Counts,Corrected_Signal_raw_counts,Calculated_Beam_c_inverse_meters,Internal_thermistor_counts
2022-07-21T00:00:54,42.805,6.029,CST-1368DR,4650,5113,11712,01.151,551
2022-07-21T00:03:56,42.805,6.029,CST-1368DR,4650,5103,11689,01.159,551
2022-07-21T00:06:58,42.805,6.029,CST-1368DR,4650,5084,11646,01.173,551
2022-07-21T00:09:59,42.805,6.029,CST-1368DR,4650,5094,11669,01.165,551
2022-07-21T00:13:01,42.805,6.029,CST-1368DR,4650,5081,11640,01.175,551
2022-07-21T00:16:02,42.805,6.029,CST-1368DR,4650,5094,11669,01.165,551
2022-07-21T00:19:04,42.805,6.029,CST-1368DR,4650,5110,11707,01.152,551
2022-07-21T00:22:06,42.805,6.029,CST-1368DR,4650,5095,11672,01.164,551
2022-07-21T00:25:07,42.805,6.029,CST-1368DR,4650,5115,11718,01.149,551
2022-07-21T00:28:09,42.805,6.029,CST-1368DR,4650,5105,11694,01.157,551
2022-07-21T00:31:10,42.805,6.029,CST-1368DR,4650,5081,11640,01.175,551
2022-07-21T00:34:12,42.805,6.029,CST-1368DR,4650,5102,11688,01.159,551
2022-07-21T00:37:13,42.805,6.029,CST-1368DR,4650,5081,11639,01.176,551
2022-07-21T00:40:15,42.805,6.029,CST-1368DR,4650,5101,11686,01.160,551
2022-07-21T00:43:17,42.805,6.029,CST-1368DR,4650,5087,11653,01.171,551
2022-07-21T00:46:18,42.805,6.029,CST-1368DR,4650,5111,11707,01.152,551
2022-07-21T00:49:20,42.805,6.029,CST-1368DR,4650,5100,11682,01.161,551
2022-07-21T00:52:21,42.805,6.029,CST-1368DR,4650,5108,11701,01.154,551
2022-07-21T00:55:23,42.805,6.029,CST-1368DR,4650,5098,11677,01.163,551
2022-07-21T00:58:24,42.805,6.029,CST-1368DR,4650,5092,11665,01.167,551
2022-07-21T01:01:26,42.805,6.029,CST-1368DR,4650,5092,11664,01.167,551
2022-07-21T01:04:28,42.805,6.029,CST-1368DR,4650,5087,11653,01.171,551
2022-07-21T01:07:29,42.805,6.029,CST-1368DR,4650,5075,11625,01.181,551
2022-07-21T01:10:31,42.805,6.029,CST-1368DR,4650,5097,11677,01.163,551
2022-07-21T01:13:32,42.805,6.029,CST-1368DR,4650,5106,11696,01.156,551
2022-07-21T01:16:34,42.805,6.029,CST-1368DR,4650,5092,11664,01.167,551
2022-07-21T01:19:36,42.805,6.029,CST-1368DR,4650,5087,11653,01.171,551
2022-07-21T01:22:37,42.805,6.029,CST-1368DR,4650,5094,11669,01.165,551
2022-07-21T01:25:39,42.805,6.029,CST-1368DR,4650,5095,11672,01.164,551
2022-07-21T01:28:40,42.805,6.029,CST-1368DR,4650,5096,11673,01.164,551
2022-07-21T01:31:42,42.805,6.029,CST-1368DR,4650,5101,11685,01.160,551
2022-07-21T01:34:43,42.805,6.029,CST-1368DR,4650,5097,11675,01.163,551
2022-07-21T01:37:45,42.805,6.029,CST-1368DR,4650,5089,11659,01.169,551
2022-07-21T01:40:47,42.805,6.029,CST-1368DR,4650,5094,11669,01.165,551
2022-07-21T01:43:48,42.805,6.029,CST-1368DR,4650,5095,11671,01.165,551
2022-07-21T01:46:50,42.805,6.029,CST-1368DR,4650,5103,11689,01.159,551
2022-07-21T01:49:51,42.805,6.029,CST-1368DR,4650,5103,11689,01.159,551
2022-07-21T01:52:53,42.805,6.029,CST-1368DR,4650,5099,11681,01.161,551
2022-07-21T01:55:54,42.805,6.029,CST-1368DR,4650,5100,11682,01.161,551
2022-07-21T01:58:56,42.805,6.029,CST-1368DR,4650,5078,11632,01.178,551
2022-07-21T02:01:58,42.805,6.029,CST-1368DR,4650,5100,11683,01.161,551
2022-07-21T02:04:59,42.805,6.029,CST-1368DR,4650,5116,11720,01.148,551
2022-07-21T02:08:01,42.805,6.029,CST-1368DR,4650,5099,11681,01.161,551
2022-07-21T02:11:02,42.805,6.029,CST-1368DR,4650,5088,11656,01.170,551
2022-07-21T02:14:04,42.805,6.029,CST-1368DR,4650,5093,11667,01.166,551
2022-07-21T02:17:06,42.805,6.029,CST-1368DR,4650,5110,11707,01.152,551
2022-07-21T02:20:07,42.805,6.029,CST-1368DR,4650,5088,11655,01.170,551
2022-07-21T02:23:09,42.805,6.029,CST-1368DR,4650,5098,11679,01.162,551
2022-07-21T02:26:10,42.805,6.029,CST-1368DR,4650,5107,11699,01.155,551
2022-07-21T02:29:12,42.805,6.029,CST-1368DR,4650,5104,11692,01.158,551
2022-07-21T02:32:13,42.805,6.029,CST-1368DR,4650,5107,11698,01.156,551
2022-07-21T02:35:15,42.805,6.029,CST-1368DR,4650,5111,11709,01.152,551
2022-07-21T02:38:17,42.805,6.029,CST-1368DR,4650,5095,11672,01.164,551
2022-07-21T02:41:18,42.805,6.029,CST-1368DR,4650,5096,11673,01.164,551
2022-07-21T02:44:20,42.805,6.029,CST-1368DR,4650,5091,11662,01.168,551
2022-07-21T02:47:21,42.805,6.029,CST-1368DR,4650,5100,11684,01.160,551
2022-07-21T02:50:23,42.805,6.029,CST-1368DR,4650,5103,11689,01.159,551
2022-07-21T02:53:24,42.805,6.029,CST-1368DR,4650,5109,11704,01.153,551
2022-07-21T02:56:26,42.805,6.029,CST-1368DR,4650,5100,11683,01.161,551
2022-07-21T02:59:28,42.805,6.029,CST-1368DR,4650,5095,11672,01.164,551
2022-07-21T03:02:29,42.805,6.029,CST-1368DR,4650,5105,11694,01.157,551
2022-07-21T03:05:31,42.805,6.029,CST-1368DR,4650,5112,11710,01.151,551
2022-07-21T03:08:32,42.805,6.029,CST-1368DR,4650,5098,11678,01.162,551
2022-07-21T03:11:34,42.805,6.029,CST-1368DR,4650,5118,11724,01.147,551
2022-07-21T03:14:36,42.805,6.029,CST-1368DR,4650,5074,11624,01.181,551
2022-07-21T03:17:37,42.805,6.029,CST-1368DR,4650,5108,11700,01.155,551
2022-07-21T03:20:39,42.805,6.029,CST-1368DR,4650,5072,11620,01.182,551
2022-07-21T03:23:40,42.805,6.029,CST-1368DR,4650,5106,11697,01.156,551
2022-07-21T03:26:42,42.805,6.029,CST-1368DR,4650,5116,11720,01.148,551
2022-07-21T03:29:43,42.805,6.029,CST-1368DR,4650,5117,11723,01.147,551
2022-07-21T03:32:45,42.805,6.029,CST-1368DR,4650,5104,11693,01.157,551
2022-07-21T03:35:47,42.805,6.029,CST-1368DR,4650,5098,11679,01.162,551
2022-07-21T03:38:48,42.805,6.029,CST-1368DR,4650,5108,11701,01.154,551
2022-07-21T03:41:50,42.805,6.029,CST-1368DR,4650,5105,11695,01.157,551
2022-07-21T03:44:51,42.805,6.029,CST-1368DR,4650,5100,11682,01.161,551
2022-07-21T03:47:53,42.805,6.029,CST-1368DR,4650,5100,11683,01.161,551
2022-07-21T03:50:55,42.805,6.029,CST-1368DR,4650,5101,11685,01.160,551
2022-07-21T03:53:56,42.805,6.029,CST-1368DR,4650,5103,11689,01.159,551
2022-07-21T03:56:58,42.805,6.029,CST-1368DR,4650,5111,11708,01.152,551
2022-07-21T03:59:59,42.805,6.029,CST-1368DR,4650,5101,11684,01.160,551
2022-07-21T04:03:01,42.805,6.029,CST-1368DR,4650,5103,11690,01.158,551
2022-07-21T04:06:02,42.805,6.029,CST-1368DR,4650,5097,11676,01.163,551
2022-07-21T04:09:04,42.805,6.029,CST-1368DR,4650,5115,11718,01.149,551
2022-07-21T04:12:06,42.805,6.029,CST-1368DR,4650,5106,11696,01.156,551
2022-07-21T04:15:07,42.805,6.029,CST-1368DR,4650,5108,11701,01.154,551
2022-07-21T04:18:09,42.805,6.029,CST-1368DR,4650,5095,11671,01.165,551
2022-07-21T04:21:10,42.805,6.029,CST-1368DR,4650,5098,11677,01.163,551
2022-07-21T04:24:12,42.805,6.029,CST-1368DR,4650,5085,11649,01.172,551
2022-07-21T04:27:13,42.805,6.029,CST-1368DR,4650,5097,11676,01.163,551
2022-07-21T04:30:15,42.805,6.029,CST-1368DR,4650,5095,11671,01.165,551
2022-07-21T04:33:17,42.805,6.029,CST-1368DR,4650,5102,11687,01.159,551
2022-07-21T04:36:18,42.805,6.029,CST-1368DR,4650,5104,11691,01.158,551
2022-07-21T04:39:20,42.805,6.029,CST-1368DR,4650,5102,11687,01.159,551
2022-07-21T04:42:21,42.805,6.029,CST-1368DR,4650,5098,11679,01.162,551
2022-07-21T04:45:23,42.805,6.029,CST-1368DR,4650,5093,11668,01.166,551
2022-07-21T04:48:25,42.805,6.029,CST-1368DR,4650,5108,11700,01.155,551
2022-07-21T04:51:26,42.805,6.029,CST-1368DR,4650,5095,11672,01.164,551
2022-07-21T04:54:28,42.805,6.029,CST-1368DR,4650,5091,11663,01.167,551
2022-07-21T04:57:29,42.805,6.029,CST-1368DR,4650,5093,11667,01.166,551
2022-07-21T05:00:31,42.805,6.029,CST-1368DR,4650,5082,11642,01.175,551
2022-07-21T05:03:32,42.805,6.029,CST-1368DR,4650,5091,11661,01.168,551
2022-07-21T05:06:34,42.805,6.029,CST-1368DR,4650,5093,11666,01.166,551
2022-07-21T05:09:36,42.805,6.029,CST-1368DR,4650,5098,11679,01.162,551
2022-07-21T05:12:37,42.805,6.029,CST-1368DR,4650,5088,11655,01.170,551
2022-07-21T05:15:39,42.805,6.029,CST-1368DR,4650,5102,11688,01.159,551
2022-07-21T05:18:40,42.805,6.029,CST-1368DR,4650,5097,11677,01.163,551
2022-07-21T05:21:42,42.805,6.029,CST-1368DR,4650,5103,11691,01.158,551
2022-07-21T05:24:44,42.805,6.029,CST-1368DR,4650,5097,11677,01.163,551
2022-07-21T05:27:45,42.805,6.029,CST-1368DR,4650,5084,11646,01.173,551
2022-07-21T05:30:47,42.805,6.029,CST-1368DR,4650,5095,11672,01.164,551
2022-07-21T05:33:48,42.805,6.029,CST-1368DR,4650,5086,11652,01.171,551
2022-07-21T05:36:50,42.805,6.029,CST-1368DR,4650,5088,11656,01.170,551
2022-07-21T05:39:51,42.805,6.029,CST-1368DR,4650,5104,11692,01.158,551
2022-07-21T05:42:53,42.805,6.029,CST-1368DR,4650,5103,11690,01.158,551
2022-07-21T05:45:55,42.805,6.029,CST-1368DR,4650,5090,11661,01.168,551
2022-07-21T05:48:56,42.805,6.029,CST-1368DR,4650,5087,11654,01.171,551
2022-07-21T05:51:58,42.805,6.029,CST-1368DR,4650,5087,11652,01.171,551
2022-07-21T05:54:59,42.805,6.029,CST-1368DR,4650,5116,11720,01.148,551
2022-07-21T05:58:01,42.805,6.029,CST-1368DR,4650,5087,11654,01.171,551
2022-07-21T06:01:02,42.805,6.029,CST-1368DR,4650,5088,11656,01.170,551
2022-07-21T06:04:04,42.805,6.029,CST-1368DR,4650,5112,11711,01.151,551
2022-07-21T06:07:06,42.805,6.029,CST-1368DR,4650,5091,11662,01.168,551
2022-07-21T06:10:07,42.805,6.029,CST-1368DR,4650,5102,11687,01.159,551
2022-07-21T06:13:09,42.805,6.029,CST-1368DR,4650,5093,11667,01.166,551
2022-07-21T06:16:10,42.805,6.029,CST-1368DR,4650,5104,11692,01.158,551
2022-07-21T06:19:12,42.805,6.029,CST-1368DR,4650,5115,11716,01.149,551
2022-07-21T06:22:14,42.805,6.029,CST-1368DR,4650,5108,11701,01.154,551
2022-07-21T06:25:15,42.805,6.029,CST-1368DR,4650,5096,11673,01.164,551
2022-07-21T06:28:17,42.805,6.029,CST-1368DR,4650,5104,11693,01.157,551
2022-07-21T06:31:18,42.805,6.029,CST-1368DR,4650,5104,11691,01.158,551
2022-07-21T06:34:20,42.805,6.029,CST-1368DR,4650,5109,11704,01.153,551
2022-07-21T06:37:21,42.805,6.029,CST-1368DR,4650,5093,11667,01.166,551
2022-07-21T06:40:23,42.805,6.029,CST-1368DR,4650,5114,11716,01.149,551
2022-07-21T06:43:25,42.805,6.029,CST-1368DR,4650,5095,11672,01.164,551
2022-07-21T06:46:26,42.805,6.029,CST-1368DR,4650,5088,11655,01.170,551
2022-07-21T06:49:28,42.805,6.029,CST-1368DR,4650,5117,11723,01.147,551
2022-07-21T06:52:29,42.805,6.029,CST-1368DR,4650,5105,11695,01.157,551
2022-07-21T06:55:31,42.805,6.029,CST-1368DR,4650,5089,11658,01.169,551
2022-07-21T06:58:32,42.805,6.029,CST-1368DR,4650,5113,11713,01.150,551
2022-07-21T07:01:34,42.805,6.029,CST-1368DR,4650,5110,11706,01.153,551
2022-07-21T07:04:36,42.805,6.029,CST-1368DR,4650,5099,11681,01.161,551
2022-07-21T07:07:37,42.805,6.029,CST-1368DR,4650,5114,11714,01.150,551
2022-07-21T07:10:39,42.805,6.029,CST-1368DR,4650,5103,11691,01.158,551
2022-07-21T07:13:40,42.805,6.029,CST-1368DR,4650,5090,11659,01.169,551
2022-07-21T07:16:42,42.805,6.029,CST-1368DR,4650,5098,11679,01.162,551
2022-07-21T07:19:44,42.805,6.029,CST-1368DR,4650,5114,11716,01.149,551
2022-07-21T07:22:45,42.805,6.029,CST-1368DR,4650,5112,11710,01.151,551
2022-07-21T07:25:47,42.805,6.029,CST-1368DR,4650,5110,11706,01.153,551
2022-07-21T07:28:48,42.805,6.029,CST-1368DR,4650,5101,11684,01.160,551
2022-07-21T07:31:50,42.805,6.029,CST-1368DR,4650,5104,11692,01.158,551
2022-07-21T07:34:51,42.805,6.029,CST-1368DR,4650,5106,11696,01.156,551
2022-07-21T07:37:53,42.805,6.029,CST-1368DR,4650,5097,11677,01.163,551
2022-07-21T07:40:55,42.805,6.029,CST-1368DR,4650,5096,11674,01.164,551
2022-07-21T07:43:56,42.805,6.029,CST-1368DR,4650,5101,11686,01.160,551
2022-07-21T07:46:58,42.805,6.029,CST-1368DR,4650,5103,11691,01.158,551
2022-07-21T07:49:59,42.805,6.029,CST-1368DR,4650,5103,11691,01.158,551
2022-07-21T07:53:01,42.805,6.029,CST-1368DR,4650,5104,11691,01.158,551
2022-07-21T07:56:02,42.805,6.029,CST-1368DR,4650,5102,11687,01.159,551
2022-07-21T07:59:04,42.805,6.029,CST-1368DR,4650,5108,11701,01.154,551
2022-07-21T08:02:06,42.805,6.029,CST-1368DR,4650,5104,11692,01.158,551
2022-07-21T08:05:07,42.805,6.029,CST-1368DR,4650,5087,11654,01.171,551
2022-07-21T08:08:09,42.805,6.029,CST-1368DR,4650,5104,11693,01.157,551
2022-07-21T08:11:10,42.805,6.029,CST-1368DR,4650,5089,11657,01.170,551
2022-07-21T08:14:12,42.805,6.029,CST-1368DR,4650,5103,11690,01.158,551
2022-07-21T08:17:14,42.805,6.029,CST-1368DR,4650,5101,11686,01.160,551
2022-07-21T08:20:15,42.805,6.029,CST-1368DR,4650,5093,11667,01.166,551
2022-07-21T08:23:17,42.805,6.029,CST-1368DR,4650,5105,11693,01.157,551
2022-07-21T08:26:18,42.805,6.029,CST-1368DR,4650,5107,11699,01.155,551
2022-07-21T08:29:20,42.805,6.029,CST-1368DR,4650,5094,11670,01.165,551
2022-07-21T08:32:21,42.805,6.029,CST-1368DR,4650,5101,11685,01.160,551
2022-07-21T08:35:23,42.805,6.029,CST-1368DR,4650,5090,11661,01.168,551
2022-07-21T08:38:25,42.805,6.029,CST-1368DR,4650,5100,11683,01.161,551
2022-07-21T08:41:26,42.805,6.029,CST-1368DR,4650,5097,11677,01.163,551
2022-07-21T08:44:28,42.805,6.029,CST-1368DR,4650,5116,11720,01.148,551
2022-07-21T08:47:29,42.805,6.029,CST-1368DR,4650,5092,11664,01.167,551
2022-07-21T08:50:31,42.805,6.029,CST-1368DR,4650,5108,11700,01.155,551
2022-07-21T08:53:32,42.805,6.029,CST-1368DR,4650,5102,11688,01.159,551
2022-07-21T08:56:34,42.805,6.029,CST-1368DR,4650,5094,11669,01.165,551
2022-07-21T08:59:36,42.805,6.029,CST-1368DR,4650,5100,11684,01.160,551
2022-07-21T09:02:37,42.805,6.029,CST-1368DR,4649,5104,11694,01.157,551
2022-07-21T09:05:39,42.805,6.029,CST-1368DR,4650,5106,11696,01.156,551
2022-07-21T09:08:40,42.805,6.029,CST-1368DR,4650,5101,11684,01.160,551
2022-07-21T09:11:42,42.805,6.029,CST-1368DR,4650,5099,11680,01.162,551
2022-07-21T09:14:44,42.805,6.029,CST-1368DR,4650,5106,11696,01.156,551
2022-07-21T09:17:45,42.805,6.029,CST-1368DR,4650,5107,11699,01.155,551
2022-07-21T09:20:47,42.805,6.029,CST-1368DR,4650,5098,11678,01.162,551
2022-07-21T09:23:48,42.805,6.029,CST-1368DR,4650,5097,11676,01.163,551
2022-07-21T09:26:50,42.805,6.029,CST-1368DR,4650,5103,11689,01.159,551
2022-07-21T09:29:51,42.805,6.029,CST-1368DR,4650,5090,11660,01.169,551
2022-07-21T09:32:53,42.805,6.029,CST-1368DR,4649,5100,11684,01.160,551
2022-07-21T09:35:55,42.805,6.029,CST-1368DR,4650,5095,11672,01.164,551
2022-07-21T09:38:56,42.805,6.029,CST-1368DR,4650,5106,11697,01.156,551
2022-07-21T09:41:58,42.805,6.029,CST-1368DR,4649,5101,11688,01.159,551
2022-07-21T09:44:59,42.805,6.029,CST-1368DR,4650,5114,11714,01.150,551
2022-07-21T09:48:01,42.805,6.029,CST-1368DR,4650,5106,11696,01.156,551
2022-07-21T09:51:02,42.805,6.029,CST-1368DR,4649,5090,11661,01.168,551
2022-07-21T09:54:04,42.805,6.029,CST-1368DR,4650,5097,11675,01.163,551
2022-07-21T09:57:06,42.805,6.029,CST-1368DR,4649,5100,11685,01.160,551
2022-07-21T10:00:07,42.805,6.029,CST-1368DR,4650,5099,11680,01.162,551
2022-07-21T10:03:09,42.805,6.029,CST-1368DR,4650,5108,11702,01.154,551
2022-07-21T10:06:10,42.805,6.029,CST-1368DR,4649,5095,11674,01.164,551
2022-07-21T10:09:12,42.805,6.029,CST-1368DR,4650,5098,11679,01.162,551
2022-07-21T10:12:14,42.805,6.029,CST-1368DR,4650,5098,11679,01.162,551
2022-07-21T10:15:15,42.805,6.029,CST-1368DR,4650,5106,11696,01.156,551
2022-07-21T10:18:17,42.805,6.029,CST-1368DR,4650,5106,11697,01.156,551
2022-07-21T10:21:18,42.805,6.029,CST-1368DR,4650,5100,11682,01.161,551
2022-07-21T10:24:20,42.805,6.029,CST-1368DR,4649,5094,11672,01.164,551
2022-07-21T10:27:21,42.805,6.029,CST-1368DR,4650,5096,11673,01.164,551
2022-07-21T10:30:23,42.805,6.029,CST-1368DR,4650,5092,11664,01.167,551
2022-07-21T10:33:25,42.805,6.029,CST-1368DR,4650,5098,11679,01.162,551
2022-07-21T10:36:26,42.805,6.029,CST-1368DR,4650,5091,11661,01.168,551
2022-07-21T10:39:28,42.805,6.029,CST-1368DR,4650,5094,11669,01.165,551
2022-07-21T10:42:29,42.805,6.029,CST-1368DR,4650,5096,11674,01.164,551
2022-07-21T10:45:31,42.805,6.029,CST-1368DR,4650,5091,11663,01.167,551
2022-07-21T10:48:32,42.805,6.029,CST-1368DR,4650,5103,11689,01.159,551
2022-07-21T10:51:34,42.805,6.029,CST-1368DR,4650,5093,11667,01.166,551
2022-07-21T10:54:36,42.805,6.029,CST-1368DR,4650,5091,11663,01.167,551
2022-07-21T10:57:37,42.805,6.029,CST-1368DR,4650,5088,11656,01.170,551
2022-07-21T11:00:39,42.805,6.029,CST-1368DR,4650,5104,11691,01.158,551
2022-07-21T11:03:40,42.805,6.029,CST-1368DR,4649,5109,11707,01.152,551
2022-07-21T11:06:42,42.805,6.029,CST-1368DR,4650,5103,11689,01.159,551
2022-07-21T11:09:44,42.805,6.029,CST-1368DR,4650,5104,11692,01.158,551
2022-07-21T11:12:45,42.805,6.029,CST-1368DR,4649,5092,11666,01.166,551
2022-07-21T11:15:47,42.805,6.029,CST-1368DR,4650,5098,11679,01.162,551
2022-07-21T11:18:48,42.805,6.029,CST-1368DR,4650,5104,11692,01.158,551
2022-07-21T11:21:50,42.805,6.029,CST-1368DR,4649,5092,11667,01.166,551
2022-07-21T11:24:51,42.805,6.029,CST-1368DR,4649,5103,11691,01.158,551
2022-07-21T11:27:53,42.805,6.029,CST-1368DR,4650,5103,11690,01.158,551
2022-07-21T11:30:55,42.805,6.029,CST-1368DR,4649,5108,11704,01.153,551
2022-07-21T11:33:56,42.805,6.029,CST-1368DR,4650,5109,11703,01.154,551
2022-07-21T11:36:58,42.805,6.029,CST-1368DR,4650,5112,11711,01.151,551
2022-07-21T11:39:59,42.805,6.029,CST-1368DR,4649,5101,11688,01.159,551
2022-07-21T11:43:01,42.805,6.029,CST-1368DR,4649,5115,11720,01.148,551
2022-07-21T11:46:03,42.805,6.029,CST-1368DR,4649,5106,11698,01.156,551
2022-07-21T11:49:04,42.805,6.029,CST-1368DR,4649,5106,11698,01.156,551
2022-07-21T11:52:06,42.805,6.029,CST-1368DR,4649,5099,11682,01.161,551
2022-07-21T11:55:07,42.805,6.029,CST-1368DR,4649,5097,11679,01.162,551
2022-07-21T11:58:09,42.805,6.029,CST-1368DR,4649,5105,11697,01.156,551
2022-07-21T12:01:10,42.805,6.029,CST-1368DR,4649,5110,11707,01.152,551
2022-07-21T12:04:12,42.805,6.029,CST-1368DR,4649,5107,11702,01.154,551
2022-07-21T12:07:14,42.805,6.029,CST-1368DR,4649,5103,11692,01.158,551
2022-07-21T12:10:15,42.805,6.029,CST-1368DR,4649,5106,11699,01.155,551
2022-07-21T12:13:17,42.805,6.029,CST-1368DR,4649,5105,11697,01.156,551
2022-07-21T12:16:18,42.805,6.029,CST-1368DR,4649,5108,11704,01.153,551
2022-07-21T12:19:20,42.805,6.029,CST-1368DR,4649,5102,11690,01.158,551
2022-07-21T12:22:21,42.805,6.029,CST-1368DR,4649,5103,11691,01.158,551
2022-07-21T12:25:23,42.805,6.029,CST-1368DR,4649,5095,11674,01.164,551
2022-07-21T12:28:25,42.805,6.029,CST-1368DR,4649,5112,11713,01.150,551
2022-07-21T12:31:26,42.805,6.029,CST-1368DR,4649,5108,11704,01.153,551
2022-07-21T12:34:28,42.805,6.029,CST-1368DR,4649,5105,11696,01.156,551
2022-07-21T12:37:29,42.805,6.029,CST-1368DR,4649,5095,11675,01.163,551
2022-07-21T12:40:31,42.805,6.029,CST-1368DR,4649,5101,11688,01.159,551
2022-07-21T12:43:33,42.805,6.029,CST-1368DR,4649,5103,11692,01.158,551
2022-07-21T12:46:34,42.805,6.029,CST-1368DR,4649,5097,11678,01.162,551
2022-07-21T12:49:36,42.805,6.029,CST-1368DR,4649,5088,11659,01.169,551
2022-07-21T12:52:37,42.805,6.029,CST-1368DR,4649,5098,11681,01.161,551
2022-07-21T12:55:39,42.805,6.029,CST-1368DR,4649,5107,11701,01.154,551
2022-07-21T12:58:40,42.805,6.029,CST-1368DR,4649,5108,11704,01.153,551
2022-07-21T13:01:42,42.805,6.029,CST-1368DR,4649,5101,11687,01.159,551
2022-07-21T13:04:44,42.805,6.029,CST-1368DR,4649,5110,11707,01.152,551
2022-07-21T13:07:45,42.805,6.029,CST-1368DR,4649,5117,11724,01.147,551
2022-07-21T13:10:47,42.805,6.029,CST-1368DR,4649,5108,11704,01.153,551
2022-07-21T13:13:48,42.805,6.029,CST-1368DR,4649,5094,11671,01.165,551
2022-07-21T13:16:50,42.805,6.029,CST-1368DR,4649,5114,11718,01.149,551
2022-07-21T13:19:51,42.805,6.029,CST-1368DR,4649,5103,11692,01.158,551
2022-07-21T13:22:53,42.805,6.029,CST-1368DR,4649,5106,11699,01.155,551
2022-07-21T13:25:55,42.805,6.029,CST-1368DR,4649,5107,11701,01.154,551
2022-07-21T13:28:56,42.805,6.029,CST-1368DR,4649,5103,11692,01.158,551
2022-07-21T13:31:58,42.805,6.029,CST-1368DR,4649,5108,11703,01.154,551
2022-07-21T13:34:59,42.805,6.029,CST-1368DR,4649,5099,11684,01.160,551
2022-07-21T13:38:01,42.805,6.029,CST-1368DR,4649,5103,11692,01.158,551
2022-07-21T13:41:03,42.805,6.029,CST-1368DR,4649,5101,11688,01.159,551
2022-07-21T13:44:04,42.805,6.029,CST-1368DR,4649,5108,11703,01.154,551
2022-07-21T13:47:06,42.805,6.029,CST-1368DR,4649,5108,11703,01.154,551
2022-07-21T13:50:07,42.805,6.029,CST-1368DR,4649,5098,11682,01.161,551
2022-07-21T13:53:09,42.805,6.029,CST-1368DR,4649,5102,11690,01.158,551
2022-07-21T13:56:10,42.805,6.029,CST-1368DR,4649,5097,11678,01.162,551
2022-07-21T13:59:12,42.805,6.029,CST-1368DR,4649,5094,11671,01.165,551
2022-07-21T14:02:14,42.805,6.029,CST-1368DR,4649,5112,11712,01.151,551
2022-07-21T14:05:15,42.805,6.029,CST-1368DR,4649,5112,11712,01.151,551
2022-07-21T14:08:17,42.805,6.029,CST-1368DR,4649,5105,11696,01.156,551
2022-07-21T14:11:18,42.805,6.029,CST-1368DR,4649,5104,11695,01.157,551
2022-07-21T14:14:20,42.805,6.029,CST-1368DR,4649,5110,11708,01.152,551
2022-07-21T14:17:21,42.805,6.029,CST-1368DR,4649,5114,11717,01.149,551
2022-07-21T14:20:23,42.805,6.029,CST-1368DR,4649,5113,11715,01.150,551
2022-07-21T14:23:25,42.805,6.029,CST-1368DR,4649,5111,11710,01.151,551
2022-07-21T14:26:26,42.805,6.029,CST-1368DR,4649,5099,11683,01.161,551
2022-07-21T14:29:28,42.805,6.029,CST-1368DR,4649,5117,11725,01.146,551
2022-07-21T14:32:29,42.805,6.029,CST-1368DR,4649,5097,11679,01.162,551
2022-07-21T14:35:31,42.805,6.029,CST-1368DR,4649,5103,11692,01.158,551
2022-07-21T14:38:33,42.805,6.029,CST-1368DR,4649,5104,11695,01.157,551
2022-07-21T14:41:34,42.805,6.029,CST-1368DR,4649,5101,11687,01.159,551
2022-07-21T14:44:36,42.805,6.029,CST-1368DR,4649,5094,11671,01.165,551
2022-07-21T14:47:37,42.805,6.029,CST-1368DR,4649,5115,11720,01.148,551
2022-07-21T14:50:39,42.805,6.029,CST-1368DR,4649,5099,11684,01.160,551
2022-07-21T14:53:40,42.805,6.029,CST-1368DR,4649,5097,11679,01.162,551
2022-07-21T14:56:42,42.805,6.029,CST-1368DR,4649,5106,11699,01.155,551
2022-07-21T14:59:44,42.805,6.029,CST-1368DR,4649,5101,11688,01.159,551
2022-07-21T15:02:45,42.805,6.029,CST-1368DR,4650,5227,11974,01.062,551
2022-07-21T15:05:47,42.805,6.029,CST-1368DR,4650,5229,11977,01.061,551
2022-07-21T15:08:48,42.805,6.029,CST-1368DR,4650,5228,11975,01.062,551
2022-07-21T15:11:50,42.805,6.029,CST-1368DR,4650,5227,11973,01.063,551
2022-07-21T15:14:51,42.805,6.029,CST-1368DR,4650,5219,11955,01.069,551
2022-07-21T15:17:53,42.805,6.029,CST-1368DR,4650,5227,11974,01.062,551
2022-07-21T15:20:55,42.805,6.029,CST-1368DR,4650,5228,11976,01.062,551
2022-07-21T15:23:56,42.805,6.029,CST-1368DR,4650,5229,11979,01.061,551
2022-07-21T15:26:58,42.805,6.029,CST-1368DR,4650,5230,11980,01.060,551
2022-07-21T15:29:59,42.805,6.029,CST-1368DR,4650,5229,11977,01.061,551
2022-07-21T15:33:01,42.805,6.029,CST-1368DR,4650,5228,11976,01.062,551
2022-07-21T15:36:03,42.805,6.029,CST-1368DR,4650,5230,11981,01.060,551
2022-07-21T15:39:04,42.805,6.029,CST-1368DR,4650,5230,11981,01.060,551
2022-07-21T15:42:06,42.805,6.029,CST-1368DR,4650,5230,11982,01.060,551
2022-07-21T15:45:07,42.805,6.029,CST-1368DR,4650,5230,11981,01.060,551
2022-07-21T15:48:09,42.805,6.029,CST-1368DR,4650,5229,11979,01.061,551
2022-07-21T15:51:10,42.805,6.029,CST-1368DR,4650,5229,11979,01.061,551
2022-07-21T15:54:12,42.805,6.029,CST-1368DR,4650,5230,11981,01.060,551
2022-07-21T15:57:14,42.805,6.029,CST-1368DR,4650,5231,11984,01.059,551
2022-07-21T16:00:15,42.805,6.029,CST-1368DR,4650,5230,11980,01.060,551
2022-07-21T16:03:17,42.805,6.029,CST-1368DR,4650,5230,11981,01.060,551
2022-07-21T16:06:18,42.805,6.029,CST-1368DR,4650,5229,11979,01.061,551
2022-07-21T16:09:20,42.805,6.029,CST-1368DR,4650,5230,11980,01.060,551
2022-07-21T16:12:21,42.805,6.029,CST-1368DR,4650,5231,11983,01.059,551
2022-07-21T16:15:23,42.805,6.029,CST-1368DR,4650,5232,11985,01.059,551
2022-07-21T16:18:25,42.805,6.029,CST-1368DR,4650,5231,11983,01.059,551
2022-07-21T16:21:26,42.805,6.029,CST-1368DR,4650,5228,11975,01.062,551
2022-07-21T16:24:28,42.805,6.029,CST-1368DR,4650,5232,11985,01.059,551
2022-07-21T16:27:29,42.805,6.029,CST-1368DR,4650,5231,11983,01.059,551
2022-07-21T16:30:31,42.805,6.029,CST-1368DR,4650,5229,11979,01.061,551
2022-07-21T16:33:33,42.805,6.029,CST-1368DR,4650,5233,11987,01.058,551
2022-07-21T16:36:34,42.805,6.029,CST-1368DR,4650,5232,11984,01.059,551